Vertical_Velocity
-1 -0 0 1 1 -1 0 -3 -3 -4 -3 -6 -2 -2 -0 1 1 1 1 1 0 2 1 0 1 -1 -0 3 2 6 9 4 3 -2 -6 -4 -7 -12 7 3 -7 8 13 0 8 13 -13 9 -6 33 18 -10 6 -3
0 1 1 0 1 -0 -0 2 1 -2 -1 -1 -0 2 1 -1 0 5 2 0 3 2 -5 2 3 1 -1 -5 -7 -4 1 1 -0 -3 -7 -1 -9 4 3 -9 3 0 -17 -4 25 -14 5 21 -18 -3 -0 -13 -15 -13
-1 -0 1 2 1 1 1 0 0 -1 -0 0 0 2 3 1 -0 -4 -4 1 -0 -0 -1 -2 1 -2 -7 -5 -0 -3 4 -4 -3 3 -1 -7 -7 10 4 -14 7 -5 8 9 18 -12 -17 -8 10 -3 -13 -14 9 3
-0 0 -0 0 5 1 0 0 3 2 -0 -1 -1 -1 0 -1 0 -1 1 1 -2 -0 -1 2 -2 -4 -2 -3 0 3 2 2 -6 1 -4 -6 -4 6 -9 -8 -2 -2 20 1 -9 10 -6 -9 7 5 -11 -9 1 -3
1 -0 0 2 1 0 -1 -0 -1 -1 -1 -1 0 -1 -0 1 4 -0 -6 -0 -3 -3 -3 -3 -9 3 -1 -6 -3 -1 -5 -1 -2 0 -9 -13 -2 12 -3 10 -40 22 -17 -11 -47 9 2 5 -10 -2 -6 2 4 9
1 2 2 2 6 0 -1 -1 -1 -1 0 1 -1 -0 0 -5 -3 -3 -3 -4 2 0 -7 -9 -8 -0 0 4 3 0 1 0 -6 3 -7 -7 -10 9 -5 -12 14 -8 -8 -5 -21 -4 2 -5 1 -1 -1 4 4 1
1 1 8 1 0 -0 -2 12 -1 -2 9 0 1 0 1 -1 -2 -2 -8 1 0 2 1 -6 -6 -3 -3 -1 1 -6 -2 -10 2 7 -16 6 4 16 3 -26 10 -4 9 16 10 12 -12 4 -14 4 -7 -1 9 4
2 0 5 1 -1 2 0 11 20 1 -2 0 1 -0 -3 -2 -3 3 -2 0 3 1 -1 -1 -14 7 -2 -3 -6 -0 4 11 6 4 5 -3 3 12 -22 -3 -6 3 -2 -4 -3 1 -8 6 -15 14 29 42 2 2
1 1 1 1 6 8 1 2 1 1 -1 -2 -3 -1 -2 -5 -4 12 -2 -4 1 9 3 -6 -8 15 -4 4 -0 -5 -3 7 0 -6 -8 23 -2 -20 -16 1 0 2 -5 9 -5 -6 0 7 6 3 6 -1 -4 6
-0 -1 0 2 2 -3 -1 -1 -1 -1 -1 -0 -1 -2 -3 -1 -1 -1 -0 2 3 -2 -2 -12 7 3 1 14 5 4 2 -1 0 -18 7 7 -30 -0 -6 -3 -4 -4 5 29 8 10 6 2 -3 -1 -0 0 1 2
1 0 0 2 1 -1 -1 -0 -1 -1 -1 -2 -3 2 4 2 -1 3 4 3 2 6 -3 -0 -2 -1 5 9 2 8 10 8 2 12 -1 3 -9 -1 6 -1 -6 -0 2 4 1 1 1 2 0 1 0 0 2 2
-0 0 -0 -2 -2 -0 -2 -2 -1 -2 1 0 2 4 -1 2 3 2 0 -1 -1 -3 -0 0 -1 -3 2 3 1 4 3 9 3 6 3 -1 4 4 3 -0 -3 -3 -1 0 -1 -0 4 -2 -3 -1 -3 -1 1 1
1 0 -0 2 3 -1 -1 -0 -2 -1 -1 -2 9 5 4 -1 1 -4 -1 -2 1 0 0 -3 1 3 0 -0 -3 -2 -2 1 0 -2 -3 2 -7 -4 -4 -4 -2 1 -0 0 0 3 0 -9 -1 3 0 1 1 -0
1 2 0 -4 1 0 0 -2 2 2 10 10 0 1 -4 1 -1 -1 3 1 -2 -1 -1 -1 6 1 0 -4 -2 -2 6 -3 1 0 -2 14 -2 -1 -2 -5 -5 -2 2 1 -1 -0 3 3 1 2 -1 1 -0 2
-1 1 2 2 2 5 2 1 -1 2 9 -1 -3 -2 -1 3 -1 -2 -3 -0 -1 1 -2 -2 -2 6 8 -0 0 1 0 -2 -3 -2 9 4 1 -0 -0 1 1 -0 -1 -0 3 5 4 3 3 0 -3 -1 1 -1
-0 -0 -1 1 1 -1 -1 -1 -0 8 3 -3 -4 -2 1 -1 0 0 -0 -3 -1 -2 -0 -2 1 4 0 -2 1 -4 4 -2 8 6 1 0 1 -1 -2 -1 -1 -1 -2 0 1 2 3 1 1 -1 -4 -1 -1 -2
2 -0 1 1 0 2 1 -2 -2 -1 -0 -5 -5 1 1 0 3 2 6 4 1 -0 -1 5 1 -1 7 5 1 4 -5 2 -2 -2 -0 -1 -1 -3 -1 -1 -2 0 -0 -1 -0 1 1 0 -0 -2 -4 -1 -1 -1
1 2 0 -1 -1 0 0 1 1 -1 -4 -1 -1 -0 -2 -1 1 0 6 0 1 -2 2 6 -2 1 -2 2 2 4 2 4 2 2 1 1 0 -0 -1 -1 -1 -1 -1 -1 -0 1 1 -1 -1 -3 -2 -0 0 -0
10 16 18 10 5 3 -0 0 0 4 -1 -1 -2 -1 1 2 3 5 1 -4 6 3 4 -0 -4 1 -2 -1 -1 -10 -3 -1 -1 1 1 0 -0 -0 -1 0 -0 -0 -0 -1 -1 -1 -1 -1 -1 1 -1 -0 -1 1
-4 -1 2 8 8 9 10 5 -0 1 -2 -1 2 2 -2 3 -0 -3 -3 -4 -4 -2 -1 -5 -2 10 8 1 -0 1 1 -1 -1 -1 0 -0 0 1 0 0 -0 -1 -1 -1 -1 0 -1 -1 -1 -1 -0 0 2 1
0 1 -3 -3 9 13 3 15 -1 -2 0 -2 1 1 1 1 0 0 0 1 0 -1 -1 2 2 -1 0 0 -0 0 0 0 -0 -0 -2 -4 0 -1 -2 -2 -1 -1 -1 -1 -0 -0 -1 -1 -1 -0 -0 0 -0 -0
1 -0 -0 -1 1 27 3 -1 0 1 -0 5 -1 2 2 -1 0 -0 1 -0 -4 -2 1 0 -1 -0 1 -1 -0 -0 -1 -0 -1 -1 -1 -0 -2 -1 -1 -1 -1 -1 -2 -1 -0 -0 -1 -1 0 0 -0 0 -0 -0
3 1 1 0 1 -1 -5 -3 -1 -2 1 -3 -2 2 -1 0 0 -2 -3 -4 -4 -3 2 -0 -2 -1 -1 -0 0 -0 -1 -1 -2 -1 -1 -0 -1 -0 -1 0 -1 -1 -1 -0 -0 0 0 0 0 -1 -0 -0 0 0
11 8 5 5 1 -1 -4 -2 -3 -1 2 3 2 -2 0 -1 -1 -0 -7 2 11 1 1 -1 -0 -1 -0 -1 -1 -2 -1 2 -2 -2 -1 -1 -1 -1 -0 -0 0 0 -0 -0 1 -0 1 -0 -0 -0 -0 -0 0 1
3 -1 -0 3 4 0 -2 -0 -3 0 -4 0 3 -2 -2 -0 -0 -2 -2 5 1 -2 -1 -1 -2 -0 -0 -1 -1 -3 -2 -0 -1 -1 -3 0 -1 -2 -2 -0 -0 0 -1 -1 2 1 0 0 2 1 0 1 1 1
-5 3 -3 3 7 0 -0 -2 -3 -3 2 4 -1 -1 -2 3 0 -4 -1 -1 1 2 2 1 1 1 1 2 2 1 -0 -0 1 -0 -1 -1 -0 -0 -1 -1 -0 1 1 -0 -0 1 1 1 1 1 1 0 0 0
4 5 -4 -4 -1 -2 -2 -4 -2 -0 -2 -5 -1 2 5 1 -3 -2 -2 1 0 2 2 2 1 1 0 0 -1 -1 -0 -0 1 -1 -1 1 0 0 1 0 0 0 1 -0 0 1 2 1 1 1 1 0 2 1
16 17 7 2 1 1 4 7 7 1 1 4 4 3 -0 -1 1 -1 5 3 1 -0 -0 -0 -1 -1 -1 -1 -1 -1 -1 -1 -1 -1 0 1 1 1 1 1 1 1 1 2 1 0 1 1 1 1 1 2 1 1
3 -4 -2 2 4 4 -3 -1 -3 -1 -5 2 4 5 4 5 8 8 1 6 11 6 -2 -2 -7 -3 -3 -2 -1 -0 -1 -1 -1 -1 -0 1 -0 -1 0 1 1 1 1 0 0 1 1 1 1 1 1 1 2 1
4 1 0 1 11 2 6 1 3 2 -2 -6 4 -0 3 8 8 1 -4 -4 -3 -3 -3 -2 -2 -1 -1 -2 -1 -0 0 0 -0 0 1 1 -0 -0 1 1 0 0 1 1 1 0 1 1 1 1 1 1 1 1
2 -1 5 3 17 19 2 1 -1 -1 -3 -1 2 2 13 23 2 -2 -1 1 2 2 1 0 0 0 1 0 -0 0 0 0 1 0 -0 1 1 1 0 1 0 1 1 1 2 2 2 2 1 1 1 2 1 1
0 3 3 -2 1 5 1 -1 -2 -0 -0 -4 -3 -2 -2 -4 7 3 3 3 3 3 1 -0 -1 -1 -2 -1 -0 0 0 -0 1 1 1 1 1 1 -0 -1 1 1 1 1 2 2 2 2 2 2 2 1 2 1
-2 4 3 -0 2 2 -0 1 9 3 1 10 9 8 7 12 5 5 5 3 1 1 1 1 -1 -1 -3 -2 -1 0 0 -0 -1 -2 -1 -0 0 0 0 1 1 1 1 1 1 1 1 1 1 1 1 1 1 1
Height
2907 2909 2912 2914 2916 2919 2922 2925 2928 2931 2934 2938 2941 2944 2948 2951 2955 2958 2961 2964 2969 2971 2973 2976 2979 2983 2985 2990 2993 2994 2997 2996 2998 3000 3002 3003 3002 3003 3005 3005 3006 3006 3007 3005 3006 3005 3000 3001 3000 2999 2996 2989 2990 2990
2907 2909 2911 2914 2916 2919 2922 2924 2927 2931 2934 2937 2941 2944 2947 2950 2953 2956 2959 2963 2966 2968 2970 2973 2975 2978 2980 2983 2987 2985 2989 2989 2991 2994 2996 2996 2995 2997 2997 2994 2999 2998 3000 2998 2998 2994 2995 2994 2994 2992 2989 2986 2986 2984
2905 2907 2910 2912 2915 2918 2921 2924 2927 2931 2934 2937 2941 2944 2947 2950 2952 2955 2958 2960 2962 2965 2968 2968 2971 2972 2974 2977 2979 2981 2984 2986 2986 2988 2989 2988 2988 2992 2989 2988 2990 2990 2991 2988 2990 2985 2987 2988 2984 2984 2984 2983 2984 2983
2902 2905 2907 2910 2913 2916 2920 2924 2927 2930 2933 2937 2940 2943 2946 2949 2951 2953 2956 2958 2960 2962 2963 2966 2965 2968 2969 2970 2972 2974 2977 2979 2980 2982 2982 2982 2982 2985 2983 2984 2982 2982 2983 2981 2978 2978 2981 2979 2979 2979 2975 2974 2974 2977
2899 2901 2904 2907 2911 2914 2918 2922 2926 2929 2933 2936 2939 2942 2945 2947 2950 2952 2954 2956 2957 2960 2960 2961 2961 2963 2963 2963 2965 2966 2967 2969 2971 2973 2972 2972 2975 2978 2975 2976 2964 2974 2974 2975 2964 2974 2974 2971 2969 2969 2967 2966 2969 2969
2894 2897 2901 2904 2908 2912 2915 2919 2923 2927 2930 2934 2937 2940 2943 2945 2948 2951 2953 2954 2954 2954 2955 2955 2956 2954 2955 2956 2958 2958 2959 2960 2962 2963 2963 2964 2967 2969 2963 2956 2956 2962 2963 2963 2957 2963 2961 2959 2959 2959 2957 2959 2962 2963
2891 2894 2897 2901 2905 2909 2913 2916 2921 2924 2927 2931 2935 2939 2941 2944 2946 2949 2950 2952 2951 2952 2952 2952 2951 2952 2952 2953 2953 2953 2954 2953 2954 2955 2952 2956 2960 2959 2953 2940 2950 2952 2953 2954 2954 2954 2949 2951 2950 2950 2950 2953 2954 2958
2888 2892 2896 2899 2903 2907 2911 2914 2917 2922 2926 2930 2933 2936 2939 2941 2943 2945 2946 2947 2948 2949 2950 2950 2950 2949 2948 2948 2948 2948 2945 2945 2944 2946 2947 2949 2951 2950 2937 2931 2936 2939 2941 2940 2940 2940 2939 2942 2942 2942 2946 2949 2951 2953
2887 2892 2895 2898 2902 2905 2909 2913 2917 2921 2925 2928 2932 2934 2936 2938 2940 2943 2942 2943 2945 2948 2946 2945 2947 2946 2945 2945 2943 2942 2940 2939 2939 2937 2940 2945 2939 2930 2923 2927 2929 2933 2933 2933 2933 2932 2934 2934 2937 2941 2945 2946 2948 2950
2889 2892 2896 2899 2902 2905 2909 2912 2916 2920 2923 2927 2930 2933 2934 2936 2938 2939 2940 2942 2941 2940 2940 2939 2942 2942 2943 2942 2940 2939 2935 2935 2933 2930 2935 2931 2923 2923 2922 2922 2923 2924 2925 2929 2929 2930 2933 2935 2937 2939 2941 2943 2943 2944
2890 2893 2896 2899 2902 2905 2908 2912 2915 2919 2922 2925 2928 2932 2934 2935 2937 2938 2939 2939 2938 2938 2936 2935 2936 2938 2939 2938 2938 2936 2933 2931 2929 2926 2927 2924 2919 2916 2916 2914 2917 2920 2923 2927 2927 2930 2932 2934 2935 2936 2937 2938 2939 2939
2892 2894 2897 2899 2901 2904 2907 2911 2915 2918 2922 2925 2928 2930 2933 2935 2936 2937 2936 2936 2935 2936 2934 2934 2935 2934 2934 2934 2934 2934 2931 2930 2927 2924 2925 2920 2918 2915 2914 2914 2916 2918 2920 2922 2925 2927 2929 2930 2931 2932 2932 2934 2934 2935
2894 2896 2897 2899 2900 2901 2905 2910 2914 2917 2921 2925 2927 2929 2931 2933 2932 2932 2931 2931 2932 2931 2931 2932 2933 2932 2931 2932 2932 2931 2930 2928 2926 2924 2921 2919 2916 2914 2914 2913 2913 2914 2916 2917 2919 2920 2923 2923 2925 2927 2928 2929 2930 2931
2895 2897 2897 2897 2897 2898 2901 2907 2913 2918 2921 2923 2925 2926 2928 2926 2925 2926 2928 2928 2929 2929 2929 2930 2931 2931 2929 2930 2929 2929 2927 2925 2923 2921 2918 2917 2914 2913 2913 2912 2912 2912 2913 2913 2914 2915 2918 2919 2921 2923 2924 2925 2926 2926
2896 2898 2899 2900 2900 2903 2906 2910 2913 2917 2919 2921 2923 2922 2921 2922 2922 2923 2924 2925 2926 2926 2927 2928 2928 2928 2927 2927 2926 2925 2924 2922 2919 2916 2915 2914 2913 2913 2912 2912 2912 2912 2911 2911 2912 2913 2915 2916 2918 2920 2921 2922 2923 2923
2897 2899 2900 2902 2904 2906 2909 2911 2914 2917 2918 2920 2919 2918 2919 2919 2920 2920 2921 2922 2923 2923 2923 2925 2925 2924 2923 2923 2922 2920 2921 2917 2916 2915 2914 2914 2913 2912 2911 2910 2910 2910 2910 2909 2909 2911 2912 2914 2915 2917 2919 2919 2920 2921
2896 2898 2900 2902 2904 2906 2909 2911 2914 2915 2916 2916 2915 2915 2916 2916 2917 2917 2917 2918 2919 2919 2920 2921 2921 2920 2919 2918 2917 2916 2915 2914 2914 2914 2913 2912 2911 2911 2910 2909 2908 2908 2907 2907 2907 2908 2910 2911 2913 2915 2916 2917 2918 2919
2895 2897 2899 2901 2903 2905 2907 2909 2911 2912 2911 2912 2912 2913 2913 2914 2914 2914 2914 2913 2914 2914 2916 2917 2916 2916 2915 2914 2913 2913 2912 2912 2912 2911 2911 2910 2910 2909 2908 2907 2906 2906 2905 2904 2904 2904 2906 2908 2910 2912 2913 2914 2915 2917
2892 2895 2897 2899 2900 2902 2905 2907 2908 2909 2908 2909 2910 2911 2910 2910 2910 2910 2910 2910 2911 2912 2913 2913 2913 2910 2910 2910 2910 2910 2911 2911 2910 2910 2909 2909 2908 2908 2907 2906 2905 2904 2903 2902 2902 2902 2903 2905 2907 2909 2910 2911 2913 2914
2889 2891 2893 2896 2898 2900 2902 2904 2904 2905 2905 2906 2906 2907 2907 2908 2908 2908 2908 2908 2908 2909 2909 2908 2908 2908 2907 2906 2907 2908 2909 2909 2909 2908 2907 2907 2906 2905 2904 2903 2902 2901 2900 2899 2899 2900 2901 2903 2904 2905 2907 2908 2910 2911
2889 2891 2892 2893 2896 2898 2899 2899 2900 2901 2902 2902 2902 2903 2905 2905 2906 2906 2906 2905 2905 2905 2905 2905 2904 2905 2904 2905 2905 2905 2905 2905 2905 2904 2903 2902 2902 2901 2901 2900 2899 2897 2896 2896 2896 2897 2899 2900 2901 2902 2904 2905 2907 2909
2886 2888 2890 2891 2893 2894 2895 2896 2898 2898 2900 2899 2900 2900 2901 2901 2902 2901 2901 2901 2900 2901 2901 2901 2901 2900 2901 2901 2901 2901 2901 2901 2901 2900 2900 2899 2898 2898 2897 2896 2895 2894 2893 2893 2893 2894 2895 2897 2898 2900 2901 2902 2904 2905
2883 2886 2887 2888 2891 2891 2893 2893 2894 2895 2896 2896 2896 2896 2896 2896 2896 2896 2895 2895 2895 2895 2895 2895 2895 2896 2896 2896 2896 2897 2897 2897 2897 2896 2896 2895 2895 2894 2893 2893 2892 2891 2890 2890 2890 2891 2893 2894 2895 2897 2898 2899 2901 2902
2878 2880 2882 2883 2884 2886 2887 2888 2889 2891 2891 2891 2892 2892 2893 2892 2892 2891 2891 2892 2891 2890 2889 2889 2890 2891 2891 2892 2892 2892 2893 2893 2892 2892 2891 2891 2890 2890 2889 2889 2888 2887 2887 2887 2887 2888 2889 2891 2892 2893 2894 2895 2897 2899
2876 2877 2878 2877 2878 2880 2881 2883 2884 2887 2887 2888 2889 2889 2889 2888 2888 2888 2887 2888 2885 2884 2884 2885 2885 2885 2885 2886 2886 2886 2886 2886 2886 2885 2885 2885 2885 2884 2884 2883 2883 2883 2883 2883 2884 2884 2885 2887 2888 2889 2890 2892 2893 2895
2870 2871 2872 2871 2872 2875 2876 2878 2878 2880 2883 2883 2883 2884 2884 2885 2884 2883 2883 2882 2882 2882 2882 2882 2882 2882 2882 2882 2881 2881 2881 2880 2880 2879 2878 2878 2878 2878 2878 2877 2877 2878 2878 2879 2879 2880 2881 2883 2884 2885 2887 2888 2889 2891
2866 2866 2867 2868 2869 2870 2871 2872 2874 2875 2876 2877 2878 2879 2880 2880 2879 2879 2878 2878 2879 2879 2880 2880 2880 2880 2880 2880 2879 2879 2878 2877 2877 2876 2874 2873 2873 2873 2872 2872 2872 2873 2873 2874 2875 2876 2877 2878 2879 2881 2882 2884 2885 2887
2862 2862 2863 2865 2865 2867 2868 2868 2868 2869 2870 2871 2873 2873 2874 2874 2876 2875 2875 2875 2876 2876 2877 2877 2877 2877 2877 2876 2875 2875 2874 2873 2873 2872 2871 2870 2869 2869 2868 2868 2867 2868 2868 2869 2869 2871 2872 2873 2875 2876 2878 2879 2881 2882
2860 2859 2860 2861 2862 2862 2863 2864 2864 2865 2865 2867 2868 2869 2870 2870 2871 2871 2871 2872 2873 2873 2873 2873 2873 2872 2871 2870 2870 2869 2868 2868 2868 2867 2867 2867 2866 2865 2864 2864 2864 2863 2863 2864 2865 2866 2867 2868 2869 2871 2873 2874 2876 2877
2857 2857 2858 2858 2859 2859 2859 2858 2859 2859 2860 2862 2863 2864 2865 2866 2866 2867 2868 2869 2869 2869 2869 2868 2867 2866 2865 2864 2864 2863 2863 2862 2862 2862 2862 2862 2861 2861 2861 2860 2860 2860 2860 2860 2861 2861 2863 2864 2865 2866 2867 2869 2870 2872
2856 2854 2856 2855 2856 2854 2853 2854 2855 2855 2856 2857 2858 2860 2861 2860 2861 2862 2864 2864 2865 2865 2865 2864 2864 2862 2861 2860 2859 2859 2858 2857 2856 2855 2855 2855 2856 2856 2856 2856 2856 2856 2856 2856 2857 2858 2858 2859 2860 2861 2863 2864 2866 2867
2854 2854 2852 2850 2850 2851 2850 2851 2851 2851 2852 2852 2853 2854 2855 2856 2858 2859 2860 2860 2861 2862 2861 2861 2860 2859 2858 2857 2855 2855 2854 2852 2852 2851 2850 2849 2849 2849 2849 2850 2851 2851 2852 2852 2853 2853 2854 2855 2856 2857 2858 2859 2860 2862
2852 2851 2850 2849 2849 2848 2848 2849 2848 2848 2849 2849 2849 2850 2851 2853 2854 2856 2857 2858 2858 2858 2858 2857 2856 2855 2854 2852 2851 2850 2850 2848 2847 2846 2845 2844 2844 2843 2843 2843 2844 2845 2846 2847 2848 2849 2850 2850 2851 2852 2853 2853 2854 2856